Time,TemperatureF,DewpointF,PressureIn,WindDirection,WindDirectionDegrees,WindSpeedMPH,WindSpeedGustMPH,Humidity,HourlyPrecipIn,Conditions,Clouds,dailyrainin,SolarRadiationWatts/m^2,SoftwareType,DateUTC
2013-05-30 00:03:00,76.3,73.1,29.84,South,184,27.6,27.6,90,0.00,CLR,,0.00,1.0,WeatherDisplay:10.37,2013-05-30 05:03:00,
2013-05-30 00:08:00,76.3,73.1,29.84,SSE,147,23.0,23.0,90,0.00,CLR,,0.00,1.0,WeatherDisplay:10.37,2013-05-30 05:08:00,
2013-05-30 00:14:00,76.2,73.1,29.84,SE,136,23.1,23.1,90,0.00,CLR,,0.00,1.0,WeatherDisplay:10.37,2013-05-30 05:14:00,
2013-05-30 00:19:00,76.1,73.0,29.84,SSE,166,24.2,24.2,90,0.00,CLR,,0.00,1.0,WeatherDisplay:10.37,2013-05-30 05:19:00,
2013-05-30 00:24:00,76.1,73.3,29.84,South,173,26.5,26.5,91,0.00,CLR,,0.00,1.0,WeatherDisplay:10.37,2013-05-30 05:24:00,
2013-05-30 00:29:00,76.0,73.2,29.84,SSW,192,20.7,20.7,91,0.00,CLR,,0.00,1.0,WeatherDisplay:10.37,2013-05-30 05:29:00,
2013-05-30 00:34:00,76.0,73.2,29.83,SSE,167,27.6,27.6,91,0.00,CLR,,0.00,1.0,WeatherDisplay:10.37,2013-05-30 05:34:00,
2013-05-30 00:39:00,75.9,73.1,29.83,South,175,28.8,28.8,91,0.00,CLR,,0.00,1.0,WeatherDisplay:10.37,2013-05-30 05:39:00,
2013-05-30 00:44:00,75.8,73.0,29.84,SSE,162,27.6,27.6,91,0.00,CLR,,0.00,1.0,WeatherDisplay:10.37,2013-05-30 05:44:00,
2013-05-30 00:49:00,75.8,73.3,29.84,South,183,26.5,26.5,92,0.00,CLR,,0.00,1.0,WeatherDisplay:10.37,2013-05-30 05:49:00,
2013-05-30 00:55:00,75.7,73.2,29.84,SSE,165,18.0,30.0,92,0.00,,,0.00,0.0,WeatherDisplay:10.37,2013-05-30 05:55:00,
2013-05-30 01:00:00,75.7,73.2,29.84,SSE,165,21.0,31.0,92,0.00,,,0.00,0.0,WeatherDisplay:10.37,2013-05-30 06:00:00,
2013-05-30 01:05:00,75.6,73.1,29.84,SSE,165,17.0,33.0,92,0.00,,,0.00,0.0,WeatherDisplay:10.37,2013-05-30 06:05:00,
2013-05-30 01:10:00,75.6,73.4,29.84,SSE,165,15.0,31.0,93,0.00,,,0.00,0.0,WeatherDisplay:10.37,2013-05-30 06:10:00,
2013-05-30 01:15:00,75.5,73.3,29.84,SSE,166,17.0,25.0,93,0.00,,,0.00,0.0,WeatherDisplay:10.37,2013-05-30 06:15:00,
2013-05-30 01:20:00,75.4,73.3,29.84,SSE,167,15.0,35.0,93,0.00,,,0.00,0.0,WeatherDisplay:10.37,2013-05-30 06:20:00,
2013-05-30 01:25:00,75.4,73.6,29.84,SSE,148,38.0,38.0,94,0.00,CLR,,0.00,1.0,WeatherDisplay:10.37,2013-05-30 06:25:00,
2013-05-30 01:30:00,75.4,73.6,29.84,South,173,26.5,26.5,94,0.00,CLR,,0.00,1.0,WeatherDisplay:10.37,2013-05-30 06:30:00,
2013-05-30 01:35:00,75.5,73.7,29.83,South,187,33.4,33.4,94,0.00,CLR,,0.00,1.0,WeatherDisplay:10.37,2013-05-30 06:35:00,
2013-05-30 01:40:00,75.4,73.6,29.83,South,172,27.3,27.3,94,0.00,CLR,,0.00,1.0,WeatherDisplay:10.37,2013-05-30 06:40:00,
2013-05-30 01:45:00,75.4,73.6,29.83,SSE,164,33.4,33.4,94,0.00,CLR,,0.00,1.0,WeatherDisplay:10.37,2013-05-30 06:45:00,
2013-05-30 01:51:00,75.3,73.5,29.83,South,174,33.4,33.4,94,0.00,CLR,,0.00,1.0,WeatherDisplay:10.37,2013-05-30 06:51:00,
2013-05-30 01:56:00,75.2,73.4,29.83,South,171,40.3,40.3,94,0.00,CLR,,0.00,1.0,WeatherDisplay:10.37,2013-05-30 06:56:00,
2013-05-30 02:01:00,75.2,73.7,29.82,SSW,198,34.5,34.5,95,0.00,CLR,,0.00,1.0,WeatherDisplay:10.37,2013-05-30 07:01:00,
2013-05-30 02:06:00,75.1,73.6,29.82,South,178,27.6,27.6,95,0.00,CLR,,0.00,1.0,WeatherDisplay:10.37,2013-05-30 07:06:00,
2013-05-30 02:11:00,75.0,73.5,29.83,South,173,29.9,29.9,95,0.00,CLR,,0.00,1.0,WeatherDisplay:10.37,2013-05-30 07:11:00,
2013-05-30 02:17:00,74.9,73.4,29.83,South,182,26.5,26.5,95,0.00,CLR,,0.00,1.0,WeatherDisplay:10.37,2013-05-30 07:17:00,
2013-05-30 02:22:00,74.8,73.3,29.83,SSE,150,28.8,28.8,95,0.00,CLR,,0.00,1.0,WeatherDisplay:10.37,2013-05-30 07:22:00,
2013-05-30 02:27:00,74.8,73.6,29.83,SSE,166,21.9,21.9,96,0.00,CLR,,0.00,1.0,WeatherDisplay:10.37,2013-05-30 07:27:00,
2013-05-30 02:32:00,74.7,73.5,29.83,SSE,166,26.5,26.5,96,0.00,CLR,,0.00,1.0,WeatherDisplay:10.37,2013-05-30 07:32:00,
2013-05-30 02:38:00,74.7,73.5,29.83,South,182,21.9,21.9,96,0.00,CLR,,0.00,1.0,WeatherDisplay:10.37,2013-05-30 07:38:00,
2013-05-30 02:43:00,74.6,73.4,29.83,SSE,148,23.0,23.0,96,0.00,CLR,,0.00,1.0,WeatherDisplay:10.37,2013-05-30 07:43:00,
2013-05-30 02:48:00,74.6,73.4,29.83,SE,136,24.2,24.2,96,0.00,CLR,,0.00,1.0,WeatherDisplay:10.37,2013-05-30 07:48:00,
2013-05-30 02:53:00,74.6,73.4,29.83,South,171,29.9,29.9,96,0.00,CLR,,0.00,1.0,WeatherDisplay:10.37,2013-05-30 07:53:00,
2013-05-30 02:58:00,74.5,73.6,29.83,SSW,201,27.6,27.6,97,0.00,CLR,,0.00,1.0,WeatherDisplay:10.37,2013-05-30 07:58:00,
2013-05-30 03:04:00,74.5,73.6,29.83,South,186,23.0,23.0,97,0.00,CLR,,0.00,1.0,WeatherDisplay:10.37,2013-05-30 08:04:00,
2013-05-30 03:09:00,74.5,73.6,29.83,South,171,21.9,21.9,97,0.00,CLR,,0.00,1.0,WeatherDisplay:10.37,2013-05-30 08:09:00,
2013-05-30 03:14:00,74.5,73.6,29.83,South,187,21.9,21.9,97,0.00,CLR,,0.00,1.0,WeatherDisplay:10.37,2013-05-30 08:14:00,
2013-05-30 03:19:00,74.5,73.6,29.83,South,179,25.3,25.3,97,0.00,CLR,,0.00,1.0,WeatherDisplay:10.37,2013-05-30 08:19:00,
2013-05-30 03:25:00,74.5,73.6,29.83,South,177,23.0,23.0,97,0.00,CLR,,0.00,1.0,WeatherDisplay:10.37,2013-05-30 08:25:00,
2013-05-30 03:30:00,74.5,73.6,29.83,South,181,15.0,24.0,97,0.00,,,0.00,0.0,WeatherDisplay:10.37,2013-05-30 08:30:00,
2013-05-30 03:35:00,74.5,73.6,29.83,SSW,210,24.0,24.0,97,0.00,CLR,,0.00,1.0,WeatherDisplay:10.37,2013-05-30 08:35:00,
2013-05-30 03:40:00,74.5,73.6,29.83,South,173,17.3,17.3,97,0.00,CLR,,0.00,1.0,WeatherDisplay:10.37,2013-05-30 08:40:00,
2013-05-30 03:45:00,74.6,73.7,29.83,SSE,154,23.0,23.0,97,0.00,CLR,,0.00,1.0,WeatherDisplay:10.37,2013-05-30 08:45:00,
2013-05-30 03:50:00,74.6,73.7,29.83,SSE,157,23.0,23.0,97,0.00,CLR,,0.00,1.0,WeatherDisplay:10.37,2013-05-30 08:50:00,
2013-05-30 03:56:00,74.6,73.7,29.83,South,172,25.3,25.3,97,0.00,CLR,,0.00,1.0,WeatherDisplay:10.37,2013-05-30 08:56:00,
2013-05-30 04:01:00,74.7,73.8,29.83,SSW,204,23.0,23.0,97,0.00,CLR,,0.00,1.0,WeatherDisplay:10.37,2013-05-30 09:01:00,
2013-05-30 04:06:00,74.7,73.8,29.83,South,178,24.2,24.2,97,0.00,CLR,,0.00,1.0,WeatherDisplay:10.37,2013-05-30 09:06:00,
2013-05-30 04:11:00,74.8,73.9,29.83,South,190,20.7,20.7,97,0.00,CLR,,0.00,1.0,WeatherDisplay:10.37,2013-05-30 09:11:00,
2013-05-30 04:16:00,74.8,73.6,29.83,South,191,28.8,28.8,96,0.00,CLR,,0.00,1.0,WeatherDisplay:10.37,2013-05-30 09:16:00,
2013-05-30 04:21:00,74.9,73.7,29.83,South,187,24.2,24.2,96,0.00,CLR,,0.00,1.0,WeatherDisplay:10.37,2013-05-30 09:21:00,
2013-05-30 04:26:00,75.0,73.8,29.83,South,175,21.9,21.9,96,0.00,CLR,,0.00,1.0,WeatherDisplay:10.37,2013-05-30 09:26:00,
2013-05-30 04:31:00,75.1,73.6,29.84,South,181,21.9,21.9,95,0.00,CLR,,0.00,1.0,WeatherDisplay:10.37,2013-05-30 09:31:00,
2013-05-30 04:37:00,75.1,73.6,29.84,South,178,20.7,20.7,95,0.00,CLR,,0.00,1.0,WeatherDisplay:10.37,2013-05-30 09:37:00,
2013-05-30 04:42:00,75.0,73.5,29.83,SSE,151,19.6,19.6,95,0.00,CLR,,0.00,1.0,WeatherDisplay:10.37,2013-05-30 09:42:00,
2013-05-30 04:47:00,75.0,73.5,29.83,SSE,154,23.0,23.0,95,0.00,CLR,,0.00,1.0,WeatherDisplay:10.37,2013-05-30 09:47:00,
2013-05-30 04:52:00,74.9,73.4,29.83,South,186,18.4,19.2,95,0.00,CLR,,0.00,1.0,WeatherDisplay:10.37,2013-05-30 09:52:00,
2013-05-30 04:57:00,74.9,73.7,29.84,South,177,28.8,28.8,96,0.00,CLR,,0.00,1.0,WeatherDisplay:10.37,2013-05-30 09:57:00,
2013-05-30 05:02:00,75.0,73.5,29.84,South,184,23.0,23.0,95,0.00,CLR,,0.00,1.0,WeatherDisplay:10.37,2013-05-30 10:02:00,
2013-05-30 05:08:00,75.0,73.8,29.84,South,185,23.0,23.0,96,0.00,CLR,,0.00,0.0,WeatherDisplay:10.37,2013-05-30 10:08:00,
2013-05-30 05:13:00,74.9,73.7,29.84,South,179,18.4,18.4,96,0.00,CLR,,0.00,1.0,WeatherDisplay:10.37,2013-05-30 10:13:00,
2013-05-30 05:18:00,74.9,73.7,29.84,South,171,18.4,18.4,96,0.00,CLR,,0.00,1.0,WeatherDisplay:10.37,2013-05-30 10:18:00,
2013-05-30 05:23:00,75.0,73.8,29.84,SSW,209,24.2,24.2,96,0.00,CLR,,0.00,1.0,WeatherDisplay:10.37,2013-05-30 10:23:00,
2013-05-30 05:28:00,75.0,73.8,29.84,SSE,164,24.2,24.2,96,0.00,CLR,,0.00,1.0,WeatherDisplay:10.37,2013-05-30 10:28:00,
2013-05-30 05:34:00,75.0,73.8,29.85,South,181,18.3,18.3,96,0.00,CLR,,0.00,1.0,WeatherDisplay:10.37,2013-05-30 10:34:00,
2013-05-30 05:39:00,75.0,73.8,29.84,South,183,23.0,23.0,96,0.00,CLR,,0.00,1.0,WeatherDisplay:10.37,2013-05-30 10:39:00,
2013-05-30 05:44:00,75.0,73.8,29.84,South,185,20.4,20.4,96,0.00,CLR,,0.00,1.0,WeatherDisplay:10.37,2013-05-30 10:44:00,
2013-05-30 05:49:00,75.0,73.8,29.85,South,190,20.7,20.7,96,0.00,CLR,,0.00,1.0,WeatherDisplay:10.37,2013-05-30 10:49:00,
2013-05-30 05:54:00,75.0,73.8,29.84,South,187,23.0,23.0,96,0.00,CLR,,0.00,1.0,WeatherDisplay:10.37,2013-05-30 10:54:00,
2013-05-30 05:59:00,74.9,73.7,29.84,South,180,26.5,26.5,96,0.00,CLR,,0.00,1.0,WeatherDisplay:10.37,2013-05-30 10:59:00,
2013-05-30 06:04:00,74.9,73.7,29.84,South,179,21.9,21.9,96,0.00,OVC,,0.00,2.0,WeatherDisplay:10.37,2013-05-30 11:04:00,
2013-05-30 06:09:00,74.9,73.7,29.85,SSW,195,23.0,23.0,96,0.00,OVC,,0.00,2.0,WeatherDisplay:10.37,2013-05-30 11:09:00,
2013-05-30 06:15:00,74.9,73.7,29.85,SSE,168,23.0,23.0,96,0.00,OVC,,0.00,3.0,WeatherDisplay:10.37,2013-05-30 11:15:00,
2013-05-30 06:20:00,74.8,73.6,29.85,South,180,15.0,24.0,96,0.00,OVC,,0.00,3.0,WeatherDisplay:10.37,2013-05-30 11:20:00,
2013-05-30 06:25:00,74.8,73.6,29.85,SE,138,17.3,17.3,96,0.00,OVC,,0.00,5.0,WeatherDisplay:10.37,2013-05-30 11:25:00,
2013-05-30 06:30:00,74.8,73.6,29.85,SSE,168,23.0,23.0,96,0.00,OVC,,0.00,8.0,WeatherDisplay:10.37,2013-05-30 11:30:00,
2013-05-30 06:35:00,74.8,73.6,29.86,SSE,167,24.2,24.2,96,0.00,OVC,,0.00,11.0,WeatherDisplay:10.37,2013-05-30 11:35:00,
2013-05-30 06:41:00,74.9,73.7,29.86,South,174,21.9,21.9,96,0.00,OVC,,0.00,16.0,WeatherDisplay:10.37,2013-05-30 11:41:00,
2013-05-30 06:46:00,74.9,73.7,29.86,SSW,201,18.4,19.8,96,0.00,OVC,,0.00,26.0,WeatherDisplay:10.37,2013-05-30 11:46:00,
2013-05-30 06:51:00,75.0,73.8,29.86,South,178,23.0,23.0,96,0.00,OVC,,0.00,22.0,WeatherDisplay:10.37,2013-05-30 11:51:00,
2013-05-30 06:56:00,75.0,73.8,29.86,South,180,29.9,29.9,96,0.00,OVC,,0.00,30.0,WeatherDisplay:10.37,2013-05-30 11:56:00,
2013-05-30 07:01:00,75.0,73.8,29.86,SSE,161,24.2,24.2,96,0.00,OVC,,0.00,48.0,WeatherDisplay:10.37,2013-05-30 12:01:00,
2013-05-30 07:06:00,75.1,73.9,29.86,SSE,155,19.8,19.8,96,0.00,OVC,,0.00,74.0,WeatherDisplay:10.37,2013-05-30 12:06:00,
2013-05-30 07:12:00,75.2,74.0,29.86,South,181,25.3,25.3,96,0.00,OVC,,0.00,171.0,WeatherDisplay:10.37,2013-05-30 12:12:00,
2013-05-30 07:17:00,75.4,74.2,29.86,South,181,15.3,16.0,96,0.00,OVC,,0.00,134.0,WeatherDisplay:10.37,2013-05-30 12:17:00,
2013-05-30 07:22:00,75.5,74.3,29.86,South,183,25.3,25.3,96,0.00,OVC,,0.00,175.0,WeatherDisplay:10.37,2013-05-30 12:22:00,
2013-05-30 07:27:00,75.7,74.5,29.86,SSE,156,21.9,21.9,96,0.00,OVC,,0.00,108.0,WeatherDisplay:10.37,2013-05-30 12:27:00,
2013-05-30 07:32:00,75.8,74.6,29.86,SSW,196,21.9,21.9,96,0.00,OVC,,0.00,199.0,WeatherDisplay:10.37,2013-05-30 12:32:00,
2013-05-30 07:37:00,75.8,74.6,29.86,SSW,196,27.6,27.6,96,0.00,OVC,,0.00,77.0,WeatherDisplay:10.37,2013-05-30 12:37:00,
2013-05-30 07:43:00,76.0,74.8,29.86,South,183,20.7,20.7,96,0.00,OVC,,0.00,150.0,WeatherDisplay:10.37,2013-05-30 12:43:00,
2013-05-30 07:48:00,76.0,74.8,29.86,South,185,21.9,21.9,96,0.00,OVC,,0.00,129.0,WeatherDisplay:10.37,2013-05-30 12:48:00,
2013-05-30 07:53:00,76.2,75.0,29.87,South,191,23.0,23.0,96,0.00,OVC,,0.00,442.0,WeatherDisplay:10.37,2013-05-30 12:53:00,
2013-05-30 07:58:00,76.4,75.2,29.87,South,187,23.7,23.7,96,0.00,OVC,,0.00,139.0,WeatherDisplay:10.37,2013-05-30 12:58:00,
2013-05-30 08:03:00,76.5,75.0,29.86,South,191,26.5,26.5,95,0.00,OVC,,0.00,181.0,WeatherDisplay:10.37,2013-05-30 13:03:00,
2013-05-30 08:08:00,76.6,75.1,29.86,South,178,25.3,25.3,95,0.00,OVC,,0.00,140.0,WeatherDisplay:10.37,2013-05-30 13:08:00,
2013-05-30 08:13:00,76.6,75.1,29.86,South,179,26.5,26.5,95,0.00,OVC,,0.00,86.0,WeatherDisplay:10.37,2013-05-30 13:13:00,
2013-05-30 08:18:00,76.4,74.9,29.86,South,183,21.9,21.9,95,0.00,OVC,,0.00,103.0,WeatherDisplay:10.37,2013-05-30 13:18:00,
2013-05-30 08:23:00,76.1,74.9,29.86,SSE,159,27.6,27.6,96,0.00,OVC,,0.00,160.0,WeatherDisplay:10.37,2013-05-30 13:23:00,
2013-05-30 08:28:00,75.9,75.0,29.86,South,173,26.5,26.5,97,0.00,OVC,,0.00,241.0,WeatherDisplay:10.37,2013-05-30 13:28:00,
2013-05-30 08:34:00,75.9,75.0,29.85,SSE,167,30.9,30.9,97,0.00,OVC,,0.00,215.0,WeatherDisplay:10.37,2013-05-30 13:34:00,
2013-05-30 08:39:00,75.8,75.2,29.84,South,173,28.8,28.8,98,0.00,OVC,,0.00,211.0,WeatherDisplay:10.37,2013-05-30 13:39:00,
2013-05-30 08:44:00,75.8,75.2,29.84,South,174,31.1,31.1,98,0.00,OVC,,0.00,161.0,WeatherDisplay:10.37,2013-05-30 13:44:00,
2013-05-30 08:49:00,75.6,75.0,29.84,SSE,153,26.5,26.5,98,0.00,OVC,,0.00,59.0,WeatherDisplay:10.37,2013-05-30 13:49:00,
2013-05-30 08:54:00,75.8,75.2,29.85,South,184,21.0,21.0,98,0.00,OVC,,0.00,30.0,WeatherDisplay:10.37,2013-05-30 13:54:00,
2013-05-30 09:00:00,75.9,75.0,29.86,SW,232,18.4,18.4,97,0.00,OVC,,0.00,32.0,WeatherDisplay:10.37,2013-05-30 14:00:00,
2013-05-30 09:05:00,75.9,75.0,29.85,SW,229,32.2,32.2,97,0.00,OVC,,0.00,93.0,WeatherDisplay:10.37,2013-05-30 14:05:00,
2013-05-30 09:10:00,76.1,75.2,29.86,South,177,30.0,30.0,97,0.00,OVC,,0.00,159.0,WeatherDisplay:10.37,2013-05-30 14:10:00,
2013-05-30 09:15:00,76.1,75.2,29.86,SSW,200,23.0,32.0,97,0.00,OVC,,0.00,308.0,WeatherDisplay:10.37,2013-05-30 14:15:00,
2013-05-30 09:20:00,76.3,75.7,29.86,SSW,193,18.0,30.0,98,0.00,OVC,,0.00,320.0,WeatherDisplay:10.37,2013-05-30 14:20:00,
2013-05-30 09:25:00,76.8,76.2,29.86,SSW,197,14.0,28.0,98,0.00,OVC,,0.00,353.0,WeatherDisplay:10.37,2013-05-30 14:25:00,
2013-05-30 09:30:00,77.4,76.8,29.87,SSW,199,15.0,25.0,98,0.00,OVC,,0.00,291.0,WeatherDisplay:10.37,2013-05-30 14:30:00,
2013-05-30 09:35:00,77.3,76.0,29.86,SSW,198,14.0,35.0,96,0.00,OVC,,0.00,213.0,WeatherDisplay:10.37,2013-05-30 14:35:00,
2013-05-30 09:40:00,77.2,76.0,29.87,South,186,24.3,24.3,96,0.00,OVC,,0.00,327.0,WeatherDisplay:10.37,2013-05-30 14:40:00,
2013-05-30 09:45:00,77.4,76.2,29.86,SSW,193,16.0,30.0,96,0.00,OVC,,0.00,324.0,WeatherDisplay:10.37,2013-05-30 14:45:00,
2013-05-30 09:50:00,77.5,76.0,29.86,SSW,193,18.0,36.0,95,0.00,OVC,,0.00,637.0,WeatherDisplay:10.37,2013-05-30 14:50:00,
2013-05-30 09:55:00,78.2,76.7,29.86,SSW,193,17.0,29.0,95,0.00,OVC,,0.00,598.0,WeatherDisplay:10.37,2013-05-30 14:55:00,
2013-05-30 10:00:00,78.6,76.4,29.86,South,191,23.0,35.0,93,0.00,OVC,,0.00,381.0,WeatherDisplay:10.37,2013-05-30 15:00:00,
2013-05-30 10:05:00,78.8,76.3,29.86,South,187,23.0,32.0,92,0.00,OVC,,0.00,548.0,WeatherDisplay:10.37,2013-05-30 15:05:00,
2013-05-30 10:10:00,79.6,77.1,29.86,South,187,18.0,30.0,92,0.00,OVC,,0.00,923.0,WeatherDisplay:10.37,2013-05-30 15:10:00,
2013-05-30 10:15:00,79.9,76.7,29.86,South,190,17.0,36.0,90,0.00,OVC,,0.00,438.0,WeatherDisplay:10.37,2013-05-30 15:15:00,
2013-05-30 10:20:00,80.2,76.7,29.86,SSW,194,16.0,30.0,89,0.00,OVC,,0.00,426.0,WeatherDisplay:10.37,2013-05-30 15:20:00,
2013-05-30 10:25:00,80.4,76.6,29.87,SSW,192,21.0,37.0,88,0.00,OVC,,0.00,1102.0,WeatherDisplay:10.37,2013-05-30 15:25:00,
2013-05-30 10:30:00,80.8,76.6,29.86,SSW,193,18.0,26.0,87,0.00,OVC,,0.00,390.0,WeatherDisplay:10.37,2013-05-30 15:30:00,
2013-05-30 10:35:00,80.9,76.3,29.86,SSW,192,15.0,32.0,86,0.00,OVC,,0.00,363.0,WeatherDisplay:10.37,2013-05-30 15:35:00,
2013-05-30 10:40:00,81.1,76.2,29.86,South,189,24.0,38.0,85,0.00,OVC,,0.00,364.0,WeatherDisplay:10.37,2013-05-30 15:40:00,
2013-05-30 10:45:00,81.4,76.1,29.86,SSW,193,21.0,37.0,84,0.00,OVC,,0.00,390.0,WeatherDisplay:10.37,2013-05-30 15:45:00,
2013-05-30 10:50:00,81.3,75.6,29.86,SSW,195,28.8,28.8,83,0.00,OVC,,0.00,654.0,WeatherDisplay:10.37,2013-05-30 15:50:00,
2013-05-30 10:55:00,81.6,75.9,29.86,SSW,196,24.0,37.0,83,0.00,OVC,,0.00,338.0,WeatherDisplay:10.37,2013-05-30 15:55:00,
2013-05-30 11:00:00,81.6,75.5,29.86,SSW,192,22.0,37.0,82,0.00,OVC,,0.00,351.0,WeatherDisplay:10.37,2013-05-30 16:00:00,
2013-05-30 11:05:00,81.7,75.7,29.86,SSW,194,20.0,39.0,82,0.00,OVC,,0.00,925.0,WeatherDisplay:10.37,2013-05-30 16:05:00,
2013-05-30 11:10:00,82.8,76.3,29.86,SSW,196,18.0,33.0,81,0.00,OVC,,0.00,977.0,WeatherDisplay:10.37,2013-05-30 16:10:00,
2013-05-30 11:15:00,83.2,76.0,29.86,SSW,196,21.0,41.0,79,0.00,OVC,,0.00,441.0,WeatherDisplay:10.37,2013-05-30 16:15:00,
2013-05-30 11:20:00,83.8,76.6,29.86,SSW,196,20.0,27.0,79,0.00,OVC,,0.00,556.0,WeatherDisplay:10.37,2013-05-30 16:20:00,
2013-05-30 11:25:00,84.0,76.0,29.86,SSW,194,23.0,35.0,77,0.00,OVC,,0.00,371.0,WeatherDisplay:10.37,2013-05-30 16:25:00,
2013-05-30 11:30:00,83.3,75.3,29.86,SSW,194,16.0,31.0,77,0.00,OVC,,0.00,197.0,WeatherDisplay:10.37,2013-05-30 16:30:00,
2013-05-30 11:35:00,82.6,75.4,29.87,SSW,200,20.0,34.0,79,0.00,OVC,,0.00,738.0,WeatherDisplay:10.37,2013-05-30 16:35:00,
2013-05-30 11:40:00,82.9,75.7,29.87,SSW,201,18.0,31.0,79,0.00,OVC,,0.00,388.0,WeatherDisplay:10.37,2013-05-30 16:40:00,
2013-05-30 11:45:00,82.9,75.7,29.86,SSW,199,18.0,31.0,79,0.00,OVC,,0.00,358.0,WeatherDisplay:10.37,2013-05-30 16:45:00,
2013-05-30 11:50:00,82.8,75.6,29.86,SSW,196,15.0,29.0,79,0.00,OVC,,0.00,249.0,WeatherDisplay:10.37,2013-05-30 16:50:00,
2013-05-30 11:55:00,82.6,75.4,29.86,SSW,194,23.0,33.0,79,0.00,OVC,,0.00,242.0,WeatherDisplay:10.37,2013-05-30 16:55:00,
2013-05-30 12:00:00,82.4,75.2,29.86,SSW,195,16.0,28.0,79,0.00,OVC,,0.00,219.0,WeatherDisplay:10.37,2013-05-30 17:00:00,
2013-05-30 12:05:00,82.4,75.6,29.86,SSW,197,17.0,32.0,80,0.00,OVC,,0.00,442.0,WeatherDisplay:10.37,2013-05-30 17:05:00,
2013-05-30 12:10:00,82.6,75.8,29.86,SSW,198,21.0,31.0,80,0.00,OVC,,0.00,405.0,WeatherDisplay:10.37,2013-05-30 17:10:00,
2013-05-30 12:15:00,82.7,75.5,29.86,SSW,198,15.0,30.0,79,0.00,OVC,,0.00,350.0,WeatherDisplay:10.37,2013-05-30 17:15:00,
2013-05-30 12:20:00,82.9,76.1,29.86,SSW,196,10.0,29.0,80,0.00,CLR,,0.00,350.0,WeatherDisplay:10.37,2013-05-30 17:20:00,
2013-05-30 12:25:00,82.8,75.6,29.86,SSW,206,25.3,25.3,79,0.00,CLR,,0.00,218.0,WeatherDisplay:10.37,2013-05-30 17:25:00,
2013-05-30 12:30:00,82.5,75.3,29.86,SSW,192,25.3,25.3,79,0.00,CLR,,0.00,244.0,WeatherDisplay:10.37,2013-05-30 17:30:00,
2013-05-30 12:36:00,82.3,75.1,29.86,SSW,211,23.0,23.0,79,0.00,CLR,,0.00,227.0,WeatherDisplay:10.37,2013-05-30 17:36:00,
2013-05-30 12:41:00,82.4,75.2,29.86,SSW,207,28.8,28.8,79,0.00,CLR,,0.00,1153.0,WeatherDisplay:10.37,2013-05-30 17:41:00,
2013-05-30 12:46:00,83.0,75.8,29.86,South,185,26.5,26.5,79,0.00,CLR,,0.00,400.0,WeatherDisplay:10.37,2013-05-30 17:46:00,
2013-05-30 12:51:00,83.2,75.6,29.86,SSW,196,20.7,20.7,78,0.00,CLR,,0.00,230.0,WeatherDisplay:10.37,2013-05-30 17:51:00,
2013-05-30 12:57:00,82.9,75.3,29.86,South,190,24.2,24.2,78,0.00,CLR,,0.00,167.0,WeatherDisplay:10.37,2013-05-30 17:57:00,
2013-05-30 13:02:00,82.7,75.5,29.87,SW,219,24.2,24.2,79,0.00,CLR,,0.00,157.0,WeatherDisplay:10.37,2013-05-30 18:02:00,
2013-05-30 13:07:00,82.6,75.4,29.86,South,185,24.2,24.2,79,0.00,CLR,,0.00,295.0,WeatherDisplay:10.37,2013-05-30 18:07:00,
2013-05-30 13:12:00,82.8,76.0,29.86,South,177,27.6,27.6,80,0.00,CLR,,0.00,215.0,WeatherDisplay:10.37,2013-05-30 18:12:00,
2013-05-30 13:17:00,82.8,75.6,29.86,South,180,20.7,20.7,79,0.00,CLR,,0.00,285.0,WeatherDisplay:10.37,2013-05-30 18:17:00,
2013-05-30 13:22:00,82.8,75.6,29.86,SW,215,21.9,21.9,79,0.00,CLR,,0.00,344.0,WeatherDisplay:10.37,2013-05-30 18:22:00,
2013-05-30 13:28:00,83.2,76.0,29.86,South,178,20.7,20.7,79,0.00,CLR,,0.00,295.0,WeatherDisplay:10.37,2013-05-30 18:28:00,
2013-05-30 13:33:00,83.0,75.4,29.86,SSW,193,23.1,23.1,78,0.00,SCT,,0.00,121.0,WeatherDisplay:10.37,2013-05-30 18:33:00,
2013-05-30 13:38:00,82.6,75.8,29.85,SSW,197,20.7,20.7,80,0.00,CLR,,0.00,254.0,WeatherDisplay:10.37,2013-05-30 18:38:00,
2013-05-30 13:43:00,82.3,75.9,29.85,SSE,159,21.9,21.9,81,0.00,CLR,,0.00,242.0,WeatherDisplay:10.37,2013-05-30 18:43:00,
2013-05-30 13:48:00,82.3,75.5,29.85,SSW,211,19.6,19.6,80,0.00,FEW,,0.00,194.0,WeatherDisplay:10.37,2013-05-30 18:48:00,
2013-05-30 13:53:00,82.4,76.0,29.85,SSW,198,16.8,16.8,81,0.00,SCT,,0.00,165.0,WeatherDisplay:10.37,2013-05-30 18:53:00,
2013-05-30 13:58:00,82.3,75.5,29.85,SSE,165,21.9,21.9,80,0.00,BKN,,0.00,162.0,WeatherDisplay:10.37,2013-05-30 18:58:00,
2013-05-30 14:03:00,82.4,75.6,29.84,South,188,21.9,21.9,80,0.00,SCT,,0.00,210.0,WeatherDisplay:10.37,2013-05-30 19:03:00,
2013-05-30 14:09:00,82.5,75.7,29.84,South,189,18.4,18.4,80,0.00,SCT,,0.00,178.0,WeatherDisplay:10.37,2013-05-30 19:09:00,
2013-05-30 14:14:00,82.4,76.0,29.84,SSW,203,20.7,20.7,81,0.00,BKN,,0.00,153.0,WeatherDisplay:10.37,2013-05-30 19:14:00,
2013-05-30 14:19:00,82.3,76.3,29.84,South,185,17.3,17.3,82,0.00,SCT,,0.00,203.0,WeatherDisplay:10.37,2013-05-30 19:19:00,
2013-05-30 14:24:00,82.2,76.2,29.84,SSW,197,19.6,19.6,82,0.00,BKN,,0.00,182.0,WeatherDisplay:10.37,2013-05-30 19:24:00,
2013-05-30 14:29:00,82.3,76.3,29.84,South,181,19.6,19.6,82,0.00,OVC,,0.00,116.0,WeatherDisplay:10.37,2013-05-30 19:29:00,
2013-05-30 14:35:00,81.8,76.1,29.84,South,180,23.0,23.0,83,0.00,BKN,,0.00,213.0,WeatherDisplay:10.37,2013-05-30 19:35:00,
2013-05-30 14:40:00,81.7,76.7,29.84,SSW,199,13.0,19.0,85,0.00,FEW,,0.00,394.0,WeatherDisplay:10.37,2013-05-30 19:40:00,
2013-05-30 14:45:00,81.8,77.8,29.84,SSW,201,10.0,18.0,88,0.00,CLR,,0.00,456.0,WeatherDisplay:10.37,2013-05-30 19:45:00,
2013-05-30 14:50:00,81.8,77.9,29.83,SSW,197,10.0,17.0,88,0.00,SCT,,0.00,313.0,WeatherDisplay:10.37,2013-05-30 19:50:00,
2013-05-30 14:55:00,82.0,78.1,29.83,SSW,193,12.0,17.0,88,0.00,SCT,,0.00,303.0,WeatherDisplay:10.37,2013-05-30 19:55:00,
2013-05-30 15:00:00,82.1,77.8,29.83,SSW,194,14.0,22.0,87,0.00,SCT,,0.00,310.0,WeatherDisplay:10.37,2013-05-30 20:00:00,
2013-05-30 15:05:00,82.4,77.8,29.83,South,191,12.0,21.0,86,0.00,SCT,,0.00,402.0,WeatherDisplay:10.37,2013-05-30 20:05:00,
2013-05-30 15:10:00,83.2,78.5,29.82,South,190,13.0,21.0,86,0.00,CLR,,0.00,783.0,WeatherDisplay:10.37,2013-05-30 20:10:00,
2013-05-30 15:15:00,84.7,78.9,29.82,South,191,15.0,22.0,83,0.00,CLR,,0.00,923.0,WeatherDisplay:10.37,2013-05-30 20:15:00,
2013-05-30 15:20:00,85.7,78.0,29.82,SSW,199,17.0,24.0,78,0.00,CLR,,0.00,586.0,WeatherDisplay:10.37,2013-05-30 20:20:00,
2013-05-30 15:25:00,86.2,77.3,29.82,SSW,199,14.0,30.0,75,0.00,FEW,,0.00,496.0,WeatherDisplay:10.37,2013-05-30 20:25:00,
2013-05-30 15:30:00,85.9,77.1,29.81,SW,222,24.2,24.2,75,0.00,SCT,,0.00,478.0,WeatherDisplay:10.37,2013-05-30 20:30:00,
2013-05-30 15:35:00,86.7,77.8,29.81,SW,221,25.3,25.3,75,0.00,CLR,,0.00,1069.0,WeatherDisplay:10.37,2013-05-30 20:35:00,
2013-05-30 15:40:00,86.8,77.5,29.81,South,184,20.7,20.7,74,0.00,FEW,,0.00,606.0,WeatherDisplay:10.37,2013-05-30 20:40:00,
2013-05-30 15:45:00,86.8,77.1,29.81,SSW,201,25.3,25.3,73,0.00,FEW,,0.00,656.0,WeatherDisplay:10.37,2013-05-30 20:45:00,
2013-05-30 15:50:00,87.6,78.3,29.81,South,170,24.2,24.2,74,0.00,CLR,,0.00,697.0,WeatherDisplay:10.37,2013-05-30 20:50:00,
2013-05-30 15:55:00,87.6,77.5,29.81,South,189,28.8,28.8,72,0.00,CLR,,0.00,555.0,WeatherDisplay:10.37,2013-05-30 20:55:00,
2013-05-30 16:00:00,88.3,78.1,29.81,SSW,193,23.0,23.0,72,0.00,CLR,,0.00,853.0,WeatherDisplay:10.37,2013-05-30 21:00:00,
2013-05-30 16:05:00,88.5,78.3,29.81,SSE,147,19.6,19.6,72,0.00,FEW,,0.00,383.0,WeatherDisplay:10.37,2013-05-30 21:05:00,
2013-05-30 16:11:00,87.8,76.8,29.80,SSW,205,26.5,26.5,70,0.00,BKN,,0.00,392.0,WeatherDisplay:10.37,2013-05-30 21:11:00,
2013-05-30 16:16:00,88.3,78.5,29.80,South,174,17.3,17.3,73,0.00,SCT,,0.00,739.0,WeatherDisplay:10.37,2013-05-30 21:16:00,
2013-05-30 16:21:00,88.4,77.8,29.80,South,188,19.2,19.2,71,0.00,CLR,,0.00,878.0,WeatherDisplay:10.37,2013-05-30 21:21:00,
2013-05-30 16:26:00,88.0,77.0,29.80,South,182,26.5,26.5,70,0.00,SCT,,0.00,357.0,WeatherDisplay:10.37,2013-05-30 21:26:00,
2013-05-30 16:31:00,87.3,76.3,29.80,SW,226,27.6,27.6,70,0.00,SCT,,0.00,310.0,WeatherDisplay:10.37,2013-05-30 21:31:00,
2013-05-30 16:36:00,87.4,77.3,29.80,South,183,26.5,26.5,72,0.00,OVC,,0.00,873.0,WeatherDisplay:10.37,2013-05-30 21:36:00,
2013-05-30 16:41:00,87.9,77.3,29.79,South,180,24.2,24.2,71,0.00,FEW,,0.00,543.0,WeatherDisplay:10.37,2013-05-30 21:41:00,
2013-05-30 16:47:00,88.6,77.6,29.79,SSW,213,23.0,23.0,70,0.00,OVC,,0.00,281.0,WeatherDisplay:10.37,2013-05-30 21:47:00,
2013-05-30 16:52:00,88.2,77.2,29.79,SSW,210,25.8,25.8,70,0.00,SCT,,0.00,695.0,WeatherDisplay:10.37,2013-05-30 21:52:00,
2013-05-30 16:57:00,88.4,76.9,29.79,WSW,245,25.3,25.3,69,0.00,SCT,,0.00,657.0,WeatherDisplay:10.37,2013-05-30 21:57:00,
2013-05-30 17:02:00,88.3,77.3,29.78,South,181,25.3,25.3,70,0.00,SCT,,0.00,646.0,WeatherDisplay:10.37,2013-05-30 22:02:00,
2013-05-30 17:08:00,88.4,76.9,29.78,South,191,24.2,24.2,69,0.00,OVC,,0.00,667.0,WeatherDisplay:10.37,2013-05-30 22:08:00,
2013-05-30 17:13:00,88.8,77.3,29.75,SSW,208,20.7,20.7,69,0.00,SCT,,0.00,668.0,WeatherDisplay:10.37,2013-05-30 22:13:00,
2013-05-30 17:18:00,89.4,77.4,29.71,SSW,203,25.3,25.3,68,0.00,SCT,,0.00,577.0,WeatherDisplay:10.37,2013-05-30 22:18:00,
2013-05-30 17:23:00,89.4,77.0,29.71,SSW,208,26.5,26.5,67,0.00,SCT,,0.00,622.0,WeatherDisplay:10.37,2013-05-30 22:23:00,
2013-05-30 17:28:00,89.6,77.2,29.71,South,187,27.6,27.6,67,0.00,SCT,,0.00,435.0,WeatherDisplay:10.37,2013-05-30 22:28:00,
2013-05-30 17:33:00,89.7,77.3,29.73,SSW,197,16.1,16.1,67,0.00,BKN,,0.00,649.0,WeatherDisplay:10.37,2013-05-30 22:33:00,
2013-05-30 17:38:00,89.5,77.1,29.79,SSW,211,24.2,24.2,67,0.00,BKN,,0.00,372.0,WeatherDisplay:10.37,2013-05-30 22:38:00,
2013-05-30 17:43:00,89.0,76.2,29.72,SSW,213,27.6,27.6,66,0.00,BKN,,0.00,295.0,WeatherDisplay:10.37,2013-05-30 22:43:00,
2013-05-30 17:49:00,89.0,76.6,29.72,SW,220,26.5,26.5,67,0.00,BKN,,0.00,552.0,WeatherDisplay:10.37,2013-05-30 22:49:00,
2013-05-30 17:54:00,89.2,77.3,29.72,South,191,24.2,24.2,68,0.00,BKN,,0.00,547.0,WeatherDisplay:10.37,2013-05-30 22:54:00,
2013-05-30 17:59:00,89.4,77.0,29.78,SSW,198,21.9,21.9,67,0.00,BKN,,0.00,359.0,WeatherDisplay:10.37,2013-05-30 22:59:00,
2013-05-30 18:04:00,89.3,76.9,29.71,South,188,18.4,18.4,67,0.00,OVC,,0.00,283.0,WeatherDisplay:10.37,2013-05-30 23:04:00,
2013-05-30 18:10:00,89.3,77.3,29.72,SSW,198,15.0,24.0,68,0.00,BKN,,0.00,475.0,WeatherDisplay:10.37,2013-05-30 23:10:00,
2013-05-30 18:15:00,89.2,77.3,29.72,South,189,20.7,20.7,68,0.00,OVC,,0.00,409.0,WeatherDisplay:10.37,2013-05-30 23:15:00,
2013-05-30 18:20:00,89.1,76.7,29.72,SSW,202,31.1,31.1,67,0.00,OVC,,0.00,389.0,WeatherDisplay:10.37,2013-05-30 23:20:00,
2013-05-30 18:25:00,89.0,76.6,29.72,SSW,195,14.0,32.0,67,0.00,OVC,,0.00,386.0,WeatherDisplay:10.37,2013-05-30 23:25:00,
2013-05-30 18:30:00,88.8,76.9,29.73,SE,146,23.0,23.0,68,0.00,OVC,,0.00,361.0,WeatherDisplay:10.37,2013-05-30 23:30:00,
2013-05-30 18:35:00,88.7,76.4,29.73,SSW,194,20.0,29.0,67,0.00,OVC,,0.00,338.0,WeatherDisplay:10.37,2013-05-30 23:35:00,
2013-05-30 18:40:00,88.5,76.1,29.73,SSW,194,14.0,26.0,67,0.00,OVC,,0.00,332.0,WeatherDisplay:10.37,2013-05-30 23:40:00,
2013-05-30 18:45:00,88.5,76.6,29.72,SSW,195,12.0,23.0,68,0.00,OVC,,0.00,337.0,WeatherDisplay:10.37,2013-05-30 23:45:00,
2013-05-30 18:50:00,88.5,77.0,29.72,SSW,193,14.0,25.0,69,0.00,OVC,,0.00,383.0,WeatherDisplay:10.37,2013-05-30 23:50:00,
2013-05-30 18:55:00,88.6,77.6,29.73,SSW,193,10.0,24.0,70,0.00,OVC,,0.00,301.0,WeatherDisplay:10.37,2013-05-30 23:55:00,
2013-05-30 19:00:00,88.4,76.5,29.73,SSW,194,14.0,26.0,68,0.00,OVC,,0.00,266.0,WeatherDisplay:10.37,2013-05-31 00:00:00,
2013-05-30 19:05:00,88.3,76.4,29.73,South,191,13.0,32.0,68,0.00,OVC,,0.00,246.0,WeatherDisplay:10.37,2013-05-31 00:05:00,
2013-05-30 19:10:00,88.1,76.6,29.70,South,190,17.3,17.3,69,0.00,OVC,,0.00,239.0,WeatherDisplay:10.37,2013-05-31 00:10:00,
2013-05-30 19:15:00,88.0,76.5,29.77,South,184,14.0,22.0,69,0.00,OVC,,0.00,241.0,WeatherDisplay:10.37,2013-05-31 00:15:00,
2013-05-30 19:20:00,87.7,76.3,29.78,South,184,10.0,23.0,69,0.00,OVC,,0.00,222.0,WeatherDisplay:10.37,2013-05-31 00:20:00,
2013-05-30 19:25:00,87.5,76.5,29.78,South,184,12.0,17.0,70,0.00,OVC,,0.00,207.0,WeatherDisplay:10.37,2013-05-31 00:25:00,
2013-05-30 19:30:00,87.5,76.9,29.79,South,185,13.0,19.0,71,0.00,OVC,,0.00,172.0,WeatherDisplay:10.37,2013-05-31 00:30:00,
2013-05-30 19:35:00,87.2,76.7,29.79,South,187,12.0,20.0,71,0.00,OVC,,0.00,78.0,WeatherDisplay:10.37,2013-05-31 00:35:00,
2013-05-30 19:40:00,87.0,76.4,29.79,South,187,12.0,21.0,71,0.00,OVC,,0.00,140.0,WeatherDisplay:10.37,2013-05-31 00:40:00,
2013-05-30 19:45:00,86.8,76.7,29.80,South,185,10.0,16.0,72,0.00,OVC,,0.00,123.0,WeatherDisplay:10.37,2013-05-31 00:45:00,
2013-05-30 19:50:00,86.6,76.9,29.80,South,182,9.0,15.0,73,0.00,OVC,,0.00,106.0,WeatherDisplay:10.37,2013-05-31 00:50:00,
2013-05-30 19:55:00,86.2,76.9,29.80,South,181,8.0,16.0,74,0.00,OVC,,0.00,85.0,WeatherDisplay:10.37,2013-05-31 00:55:00,
2013-05-30 20:00:00,85.8,76.5,29.80,South,176,17.3,17.3,74,0.00,OVC,,0.00,68.0,WeatherDisplay:10.37,2013-05-31 01:00:00,
2013-05-30 20:05:00,85.3,76.5,29.80,South,179,17.3,17.3,75,0.00,OVC,,0.00,50.0,WeatherDisplay:10.37,2013-05-31 01:05:00,
2013-05-30 20:10:00,85.1,76.7,29.80,South,171,15.3,15.3,76,0.00,OVC,,0.00,36.0,WeatherDisplay:10.37,2013-05-31 01:10:00,
2013-05-30 20:15:00,84.6,76.6,29.80,South,175,13.8,13.8,77,0.00,OVC,,0.00,23.0,WeatherDisplay:10.37,2013-05-31 01:15:00,
2013-05-30 20:20:00,84.4,76.4,29.80,SSE,163,11.5,11.5,77,0.00,OVC,,0.00,13.0,WeatherDisplay:10.37,2013-05-31 01:20:00,
2013-05-30 20:25:00,84.0,76.4,29.80,SSE,167,15.0,15.0,78,0.00,OVC,,0.00,8.0,WeatherDisplay:10.37,2013-05-31 01:25:00,
2013-05-30 20:30:00,83.6,76.4,29.80,South,176,16.1,16.1,79,0.00,OVC,,0.00,5.0,WeatherDisplay:10.37,2013-05-31 01:30:00,
2013-05-30 20:36:00,83.4,76.2,29.80,SSE,158,16.1,16.1,79,0.00,OVC,,0.00,3.0,WeatherDisplay:10.37,2013-05-31 01:36:00,
2013-05-30 20:41:00,83.1,76.3,29.79,SSW,200,15.0,15.0,80,0.00,OVC,,0.00,2.0,WeatherDisplay:10.37,2013-05-31 01:41:00,
2013-05-30 20:46:00,82.8,76.0,29.79,SSE,164,16.1,16.1,80,0.00,OVC,,0.00,2.0,WeatherDisplay:10.37,2013-05-31 01:46:00,
2013-05-30 20:51:00,82.7,75.9,29.80,South,183,19.6,19.6,80,0.00,OVC,,0.00,1.0,WeatherDisplay:10.37,2013-05-31 01:51:00,
2013-05-30 20:56:00,82.7,75.9,29.79,South,171,19.6,19.6,80,0.00,OVC,,0.00,1.0,WeatherDisplay:10.37,2013-05-31 01:56:00,
2013-05-30 21:01:00,82.5,76.1,29.79,SSE,149,21.9,21.9,81,0.00,CLR,,0.00,1.0,WeatherDisplay:10.37,2013-05-31 02:01:00,
2013-05-30 21:06:00,82.5,76.1,29.79,SSE,167,18.4,18.4,81,0.00,CLR,,0.00,1.0,WeatherDisplay:10.37,2013-05-31 02:06:00,
2013-05-30 21:11:00,82.4,76.0,29.79,South,183,15.9,15.9,81,0.00,CLR,,0.00,1.0,WeatherDisplay:10.37,2013-05-31 02:11:00,
2013-05-30 21:17:00,82.3,75.9,29.79,South,183,18.4,18.4,81,0.00,CLR,,0.00,1.0,WeatherDisplay:10.37,2013-05-31 02:17:00,
2013-05-30 21:22:00,82.2,75.8,29.80,SSW,194,16.1,16.1,81,0.00,CLR,,0.00,1.0,WeatherDisplay:10.37,2013-05-31 02:22:00,
2013-05-30 21:27:00,82.1,76.1,29.80,SSE,157,24.2,24.2,82,0.00,CLR,,0.00,1.0,WeatherDisplay:10.37,2013-05-31 02:27:00,
2013-05-30 21:32:00,82.0,76.0,29.80,South,172,18.0,18.0,82,0.00,CLR,,0.00,1.0,WeatherDisplay:10.37,2013-05-31 02:32:00,
2013-05-30 21:37:00,82.0,76.0,29.80,SSE,157,21.9,21.9,82,0.00,CLR,,0.00,1.0,WeatherDisplay:10.37,2013-05-31 02:37:00,
2013-05-30 21:42:00,82.0,76.0,29.81,SSE,162,21.9,21.9,82,0.00,CLR,,0.00,1.0,WeatherDisplay:10.37,2013-05-31 02:42:00,
2013-05-30 21:48:00,81.9,75.9,29.80,SSE,150,17.3,17.3,82,0.00,CLR,,0.00,1.0,WeatherDisplay:10.37,2013-05-31 02:48:00,
2013-05-30 21:53:00,81.8,75.8,29.81,SSE,162,17.3,17.3,82,0.00,CLR,,0.00,1.0,WeatherDisplay:10.37,2013-05-31 02:53:00,
2013-05-30 21:58:00,81.7,75.7,29.81,SE,142,21.9,21.9,82,0.00,CLR,,0.00,1.0,WeatherDisplay:10.37,2013-05-31 02:58:00,
2013-05-30 22:03:00,81.5,75.5,29.82,South,173,24.2,24.2,82,0.00,CLR,,0.00,1.0,WeatherDisplay:10.37,2013-05-31 03:03:00,
2013-05-30 22:08:00,81.6,75.6,29.82,SSE,163,23.0,23.0,82,0.00,CLR,,0.00,1.0,WeatherDisplay:10.37,2013-05-31 03:08:00,
2013-05-30 22:13:00,81.5,75.5,29.83,SSE,158,17.3,17.3,82,0.00,CLR,,0.00,1.0,WeatherDisplay:10.37,2013-05-31 03:13:00,
2013-05-30 22:18:00,81.5,75.8,29.83,SSE,165,17.3,17.3,83,0.00,CLR,,0.00,1.0,WeatherDisplay:10.37,2013-05-31 03:18:00,
2013-05-30 22:24:00,81.4,75.7,29.83,South,178,21.9,21.9,83,0.00,CLR,,0.00,1.0,WeatherDisplay:10.37,2013-05-31 03:24:00,
2013-05-30 22:29:00,81.4,75.7,29.84,South,183,20.7,20.7,83,0.00,CLR,,0.00,1.0,WeatherDisplay:10.37,2013-05-31 03:29:00,
2013-05-30 22:34:00,81.5,75.8,29.84,SSE,155,23.7,23.7,83,0.00,CLR,,0.00,1.0,WeatherDisplay:10.37,2013-05-31 03:34:00,
2013-05-30 22:39:00,81.6,75.9,29.84,South,187,24.2,24.2,83,0.00,CLR,,0.00,1.0,WeatherDisplay:10.37,2013-05-31 03:39:00,
2013-05-30 22:45:00,81.7,76.0,29.84,South,175,20.7,20.7,83,0.00,CLR,,0.00,1.0,WeatherDisplay:10.37,2013-05-31 03:45:00,
2013-05-30 22:50:00,81.7,76.0,29.85,South,174,14.0,24.0,83,0.00,CLR,,0.00,0.0,WeatherDisplay:10.37,2013-05-31 03:50:00,
2013-05-30 22:55:00,81.8,76.1,29.85,South,176,14.0,25.0,83,0.00,CLR,,0.00,0.0,WeatherDisplay:10.37,2013-05-31 03:55:00,
2013-05-30 23:00:00,81.9,76.2,29.85,South,173,15.0,27.0,83,0.00,CLR,,0.00,0.0,WeatherDisplay:10.37,2013-05-31 04:00:00,
2013-05-30 23:01:00,81.9,75.9,29.85,South,169,23.0,23.0,82,0.00,CLR,,0.00,1.0,WeatherDisplay:10.37,2013-05-31 04:01:00,
2013-05-30 23:02:00,81.9,75.9,29.85,SSE,147,24.2,24.2,82,0.00,CLR,,0.00,1.0,WeatherDisplay:10.37,2013-05-31 04:02:00,
2013-05-30 23:03:00,81.9,75.9,29.85,SSE,157,21.9,21.9,82,0.00,CLR,,0.00,1.0,WeatherDisplay:10.37,2013-05-31 04:03:00,
2013-05-30 23:04:00,81.9,75.9,29.85,South,181,18.4,18.4,82,0.00,CLR,,0.00,1.0,WeatherDisplay:10.37,2013-05-31 04:04:00,
2013-05-30 23:10:00,81.8,75.8,29.85,South,169,24.2,24.2,82,0.00,CLR,,0.00,1.0,WeatherDisplay:10.37,2013-05-31 04:10:00,
2013-05-30 23:15:00,81.7,76.0,29.85,South,170,12.0,16.0,83,0.00,CLR,,0.00,0.0,WeatherDisplay:10.37,2013-05-31 04:15:00,
2013-05-30 23:20:00,81.5,75.8,29.85,SSE,168,13.0,26.0,83,0.00,CLR,,0.00,0.0,WeatherDisplay:10.37,2013-05-31 04:20:00,
2013-05-30 23:25:00,81.3,76.0,29.85,South,171,13.0,22.0,84,0.00,CLR,,0.00,0.0,WeatherDisplay:10.37,2013-05-31 04:25:00,
2013-05-30 23:30:00,81.1,76.2,29.85,South,171,10.0,24.0,85,0.00,,,0.00,0.0,WeatherDisplay:10.37,2013-05-31 04:30:00,
2013-05-30 23:35:00,81.0,76.1,29.85,South,171,13.0,22.0,85,0.00,,,0.00,0.0,WeatherDisplay:10.37,2013-05-31 04:35:00,
2013-05-30 23:40:00,80.8,76.2,29.85,South,171,10.0,25.0,86,0.00,,,0.00,0.0,WeatherDisplay:10.37,2013-05-31 04:40:00,
2013-05-30 23:45:00,80.6,76.0,29.85,South,169,13.0,23.0,86,0.00,,,0.00,0.0,WeatherDisplay:10.37,2013-05-31 04:45:00,
2013-05-30 23:50:00,80.5,76.3,29.85,SSW,195,23.0,23.0,87,0.00,CLR,,0.00,1.0,WeatherDisplay:10.37,2013-05-31 04:50:00,
2013-05-30 23:55:00,80.4,76.2,29.85,SSE,160,26.5,26.5,87,0.00,CLR,,0.00,1.0,WeatherDisplay:10.37,2013-05-31 04:55:00,